Regional Weather Roundup
Issued by NWS Kansas City/Pleasant Hill, MO

Home | Current Version | Previous Version | Graphics & Text | Print | Product List | Glossary Off
Versions: 1 2 3 4 5 6 7 8 9 10 11 12 13 14 15 16 17 18 19 20 21 22 23 24 25 26 27 28 29 30 31 32 33 34 35 36 37 38 39 40 41 42 43 44 45 46 47 48 49 50

905
ASUS43 KEAX 220310
RWREAX

WEATHER ROUNDUP FOR EASTERN KANSAS AND NORTHWEST MISSOURI
NATIONAL WEATHER SERVICE KANSAS CITY/PLEASANT HILL MO
900 PM CST SAT JAN 21 2017

KSZ040-057-103>105-MOZ028-029-037-043-220400-
...KANSAS CITY METROPOLITAN AREA...

CITY           SKY/WX    TMP DP  RH WIND       PRES   REMARKS
K.C. INTL      CLOUDY    47  41  80 NE6       29.51F
K.C. DOWNTOWN  CLOUDY    49  44  83 E3        29.52R
LEES SUMMIT    CLOUDY    48  44  86 E7        29.52S
OLATHE - IXD   CLOUDY    46  44  93 NE6       29.51F
OLATHE - OJC   CLOUDY    47  44  90 E7        29.51F
LAWRENCE       CLOUDY    46  45  96 SE5       29.51S

$$

MOZ001>008-011>017-020>025-030>033-038>040-044>046-053-054-220400-
...NORTHERN AND CENTRAL MISSOURI...

CITY           SKY/WX    TMP DP  RH WIND       PRES   REMARKS
ST. JOSEPH     CLOUDY    39  39 100 N3        29.54S
WARRENSBURG    DRIZZLE   46  43  87 CALM      29.53S
WHITEMAN AFB   DRIZZLE   49  49 100 NE7       29.51F
CLINTON        LGT RAIN  50  45  81 CALM      29.53R
SEDALIA        CLOUDY    51  42  71 N5        29.53S
WARSAW         NOT AVBL
CHILLICOTHE      N/A     39  39 100 N3        29.55S
KIRKSVILLE     FOG       36  35  96 N3        29.56S VSB 1/4

$$

MOZ041-047>049-056>058-063>065-088>090-097-220400-
...EASTERN AND SOUTHERN MISSOURI...

CITY           SKY/WX    TMP DP  RH WIND       PRES   REMARKS
ST. LOUIS INTL CLOUDY    54  40  59 CALM      29.56R
SPIRIT OF STL  MOCLDY    49  42  77 CALM      29.55R
COLUMBIA       CLOUDY    53  40  61 NE10      29.53S
JEFFERSON CITY CLOUDY    49  41  74 S3        29.53R
ROLLA          CLOUDY    53  39  59 NE6       29.52S
OSAGE BEACH    CLOUDY    56  38  50 NE7       29.52S
SPRINGFIELD    LGT RAIN  53  49  86 NE5       29.47F
BRANSON        CLOUDY    50  50 100 NE3       29.47F
JOPLIN         CLOUDY    53  48  83 NE6       29.45S
WEST PLAINS    CLOUDY    58  51  78 SE3       29.53S

$$

IAZ060-094-KSZ022-034>040-054-083-096-NEZ052-066-093-220400-
...KANSAS...SOUTHEAST NEBRASKA AND IOWA...

CITY           SKY/WX    TMP DP  RH WIND       PRES   REMARKS
TOPEKA         CLOUDY    46  43  89 NW3       29.50F
MANHATTAN      CLOUDY    48  42  80 CALM      29.50R
EMPORIA        LGT RAIN  45  44  97 E7        29.49R
CHANUTE        CLOUDY    53  42  66 NE7       29.45S
WICHITA        CLOUDY    48  41  76 E9        29.43S
OMAHA          CLEAR     36  31  82 CALM      29.54R
LINCOLN        CLEAR     35  32  88 NW3       29.55R
FALLS CITY     CLEAR     42  38  85 CALM      29.53R
LAMONI         CLEAR     41  39  93 S7        29.54S
DES MOINES     PTCLDY    37  34  89 CALM      29.55R

$$





USA.gov is the U.S. government's official web portal to all federal, state and local government web resources and services.